FW8088 Weather Reports


time (UTC)temp
C
wind
direction
speed
KPH
gust
KPH
rain 1hr
cm
rain 24hr
cm
rain mn
cm
humidity
%
barometer
mb
20260504001735 12 80 0.0 0.0 0.00 0.00 0.00 56
20260504001232 12 73 1.6 1.6 0.00 0.00 0.00 56
20260504000728 12 94 1.6 1.6 0.00 0.00 0.00 53
20260504000226 12 123 1.6 1.6 0.00 0.00 0.00 53
20260503235724 12 202 1.6 1.6 0.00 0.00 0.00 52
20260503235221 13 123 3.2 3.2 0.00 0.00 0.00 52
20260503234718 13 274 0.0 1.6 0.00 0.00 0.00 51
20260503234216 13 151 1.6 3.2 0.00 0.00 0.00 49
20260503233713 13 144 1.6 3.2 0.00 0.00 0.00 51
20260503233209 14 94 1.6 1.6 0.00 0.00 0.00 48
20260503232706 14 84 0.0 0.0 0.00 0.00 0.00 49
20260503232203 14 103 1.6 4.8 0.00 0.00 0.00 49
20260503231701 14 70 0.0 0.0 0.00 0.00 0.00 48
20260503231157 13 162 1.6 3.2 0.00 0.00 0.00 46
20260503230654 14 111 0.0 0.0 0.00 0.00 0.00 48
20260503230151 14 203 1.6 1.6 0.00 0.00 0.00 47
20260503225648 14 64 0.0 0.0 0.00 0.00 0.00 47
20260503225148 13 174 1.6 3.2 0.00 0.00 0.00 47
20260503224646 13 151 1.6 1.6 0.00 0.00 0.00 46
20260503224143 13 93 1.6 1.6 0.00 0.00 0.00 47
20260503223641 13 337 0.0 1.6 0.00 0.00 0.00 48
20260503223137 14 143 4.8 4.8 0.00 0.00 0.00 46
20260503222635 14 282 1.6 3.2 0.00 0.00 0.00 47
20260503222132 14 65 1.6 1.6 0.00 0.00 0.00 45
20260503221631 14 163 0.0 1.6 0.00 0.00 0.00 46
20260503221128 14 64 0.0 0.0 0.00 0.00 0.00 46
20260503220624 14 190 1.6 3.2 0.00 0.00 0.00 44
20260503220121 14 65 1.6 3.2 0.00 0.00 0.00 44
20260503215618 14 87 4.8 8.0 0.00 0.00 0.00 45
20260503215115 14 188 1.6 1.6 0.00 0.00 0.00 45
20260503214613 14 189 1.6 1.6 0.00 0.00 0.00 46
20260503214109 14 82 0.0 1.6 0.00 0.00 0.00 46
20260503213609 14 248 0.0 1.6 0.00 0.00 0.00 45
20260503213104 15 162 3.2 4.8 0.00 0.00 0.00 43
20260503212602 15 303 1.6 3.2 0.00 0.00 0.00 43
20260503212059 15 125 1.6 1.6 0.00 0.00 0.00 44
20260503211556 15 286 1.6 3.2 0.00 0.00 0.00 42
20260503211051 15 303 4.8 8.0 0.00 0.00 0.00 42
20260503210549 15 58 0.0 1.6 0.00 0.00 0.00 42
20260503210044 15 69 0.0 0.0 0.00 0.00 0.00 44
20260503205541 15 242 3.2 3.2 0.00 0.00 0.00 42
20260503205038 15 41 4.8 8.0 0.00 0.00 0.00 42
20260503204534 15 179 1.6 3.2 0.00 0.00 0.00 44
20260503204031 15 297 1.6 1.6 0.00 0.00 0.00 43
20260503203529 15 274 1.6 1.6 0.00 0.00 0.00 42
20260503203026 15 278 1.6 3.2 0.00 0.00 0.00 43
20260503202524 15 286 1.6 3.2 0.00 0.00 0.00 44
20260503202021 15 235 3.2 3.2 0.00 0.00 0.00 42
20260503201519 15 147 3.2 8.0 0.00 0.00 0.00 42
20260503201016 15 167 4.8 4.8 0.00 0.00 0.00 42
20260503200512 15 190 4.8 4.8 0.00 0.00 0.00 42
20260503200009 15 171 1.6 1.6 0.00 0.00 0.00 42
20260503195507 14 138 3.2 8.0 0.00 0.00 0.00 44
20260503195003 15 299 1.6 3.2 0.00 0.00 0.00 43
20260503194500 15 112 3.2 3.2 0.00 0.00 0.00 42
20260503193955 15 276 6.4 8.0 0.00 0.00 0.00 42
20260503193451 14 95 3.2 3.2 0.00 0.00 0.00 42
20260503192947 15 22 0.0 0.0 0.00 0.00 0.00 43
20260503192443 15 119 3.2 3.2 0.00 0.00 0.00 43
20260503191939 14 277 3.2 3.2 0.00 0.00 0.00 44
20260503191437 14 260 1.6 1.6 0.00 0.00 0.00 43
20260503190932 15 125 3.2 4.8 0.00 0.00 0.00 44
20260503190431 14 173 0.0 1.6 0.00 0.00 0.00 44
20260503185927 15 76 1.6 3.2 0.00 0.00 0.00 44
20260503185424 15 54 1.6 3.2 0.00 0.00 0.00 42
20260503184923 15 280 0.0 1.6 0.00 0.00 0.00 44
20260503184420 15 191 0.0 1.6 0.00 0.00 0.00 45
20260503183916 14 256 1.6 3.2 0.00 0.00 0.00 46
20260503183413 13 163 3.2 4.8 0.00 0.00 0.00 46
20260503182910 14 278 4.8 8.0 0.00 0.00 0.00 44
20260503182409 15 60 1.6 1.6 0.00 0.00 0.00 45
20260503181905 14 66 0.0 0.0 0.00 0.00 0.00 44
20260503181403 15 51 0.0 0.0 0.00 0.00 0.00 45
20260503180859 15 9 0.0 1.6 0.00 0.00 0.00 44
20260503180357 13 283 6.4 9.7 0.00 0.00 0.00 46
20260503175853 13 123 3.2 4.8 0.00 0.00 0.00 44
20260503175351 13 181 1.6 3.2 0.00 0.00 0.00 48
20260503174846 14 307 4.8 8.0 0.00 0.00 0.00 44
20260503174345 14 140 1.6 1.6 0.00 0.00 0.00 46
20260503173845 13 127 1.6 1.6 0.00 0.00 0.00 46
20260503173342 13 142 1.6 3.2 0.00 0.00 0.00 45
20260503172838 13 82 1.6 3.2 0.00 0.00 0.00 46
20260503172336 14 70 0.0 0.0 0.00 0.00 0.00 45
20260503171832 13 274 0.0 1.6 0.00 0.00 0.00 46
20260503171329 13 76 0.0 1.6 0.00 0.00 0.00 44
20260503170826 15 296 1.6 3.2 0.00 0.00 0.00 46
20260503170323 15 319 1.6 1.6 0.00 0.00 0.00 47
20260503150715 11 143 3.2 4.8 0.00 0.00 0.00 50
20260503150211 11 276 1.6 3.2 0.00 0.00 0.00 52
20260503140136 8 292 1.6 1.6 0.00 0.00 0.00 58
20260503131105 8 335 0.0 0.0 0.00 0.00 0.00 62
20260503130603 7 38 1.6 3.2 0.00 0.00 0.00 62
20260503110453 0 75 0.0 0.0 0.00 0.00 0.00 99
20260503090338 -1 38 0.0 1.6 0.00 0.00 0.00 98
20260503081306 -2 57 0.0 0.0 0.00 0.00 0.00 97
20260503080802 -2 62 0.0 0.0 0.00 0.00 0.00 97
20260503080259 -1 62 0.0 0.0 0.00 0.00 0.00 97
20260503072736 -1 62 0.0 0.0 0.00 0.00 0.00 96
20260503072232 -1 62 0.0 0.0 0.00 0.00 0.00 96
20260503071729 -1 62 0.0 0.0 0.00 0.00 0.00 96
20260503071226 -1 62 0.0 0.0 0.00 0.00 0.00 96
20260503070722 -1 60 0.0 0.0 0.00 0.00 0.00 96
20260503070221 -1 62 0.0 0.0 0.00 0.00 0.00 96
20260503060145 -1 61 0.0 0.0 0.00 0.00 0.00 94
20260503054632 -1 60 0.0 0.0 0.00 0.00 0.00 93
20260503054129 0 61 0.0 0.0 0.00 0.00 0.00 93
20260503053627 0 62 0.0 0.0 0.00 0.00 0.00 92
20260503053126 0 62 0.0 0.0 0.00 0.00 0.00 92
20260503052622 0 63 0.0 0.0 0.00 0.00 0.00 92
20260503052118 0 58 0.0 0.0 0.00 0.00 0.00 91
20260503051614 0 57 0.0 0.0 0.00 0.00 0.00 91
20260503051112 0 57 0.0 0.0 0.00 0.00 0.00 91
20260503050608 0 58 0.0 0.0 0.00 0.00 0.00 90
20260503050105 0 58 0.0 0.0 0.00 0.00 0.00 90
20260503045602 0 58 0.0 0.0 0.00 0.00 0.00 89
20260503045059 0 57 0.0 0.0 0.00 0.00 0.00 89
20260503044555 1 57 0.0 0.0 0.00 0.00 0.00 88
20260503044053 1 66 0.0 0.0 0.00 0.00 0.00 87
20260503043549 1 66 0.0 0.0 0.00 0.00 0.00 86
20260503043046 1 58 0.0 0.0 0.00 0.00 0.00 85
20260503042543 2 57 0.0 0.0 0.00 0.00 0.00 83
20260503042039 2 58 0.0 0.0 0.00 0.00 0.00 81
20260503041536 2 54 0.0 0.0 0.00 0.00 0.00 79
20260503041034 3 54 0.0 0.0 0.00 0.00 0.00 77
20260503040531 3 40 0.0 0.0 0.00 0.00 0.00 77
20260503040028 3 43 0.0 0.0 0.00 0.00 0.00 77
20260503035525 3 38 0.0 0.0 0.00 0.00 0.00 77
20260503035022 3 350 0.0 1.6 0.00 0.00 0.00 76
20260503034520 3 35 0.0 0.0 0.00 0.00 0.00 76
20260503034016 3 27 0.0 0.0 0.00 0.00 0.00 76
20260503033514 3 358 0.0 0.0 0.00 0.00 0.00 76
20260503033012 3 27 0.0 0.0 0.00 0.00 0.00 76
20260503032510 3 353 1.6 1.6 0.00 0.00 0.00 76
20260503032008 3 37 0.0 0.0 0.00 0.00 0.00 75
20260503031505 3 38 0.0 0.0 0.00 0.00 0.00 76
20260503031002 3 38 0.0 0.0 0.00 0.00 0.00 76
20260503030458 3 310 0.0 1.6 0.00 0.00 0.00 76
20260503025955 3 37 0.0 0.0 0.00 0.00 0.00 76
20260503025452 3 22 0.0 0.0 0.00 0.00 0.00 75
20260503024949 3 24 0.0 0.0 0.00 0.00 0.00 76
20260503024445 3 58 0.0 0.0 0.00 0.00 0.00 75
20260503023943 3 345 0.0 0.0 0.00 0.00 0.00 75
20260503023440 3 301 0.0 1.6 0.00 0.00 0.00 75
20260503022937 3 37 0.0 0.0 0.00 0.00 0.00 75
20260503022432 3 294 1.6 1.6 0.00 0.00 0.00 74
20260503021928 3 307 1.6 3.2 0.00 0.00 0.00 74
20260503021424 3 1 0.0 0.0 0.00 0.00 0.00 75
20260503020922 3 38 0.0 0.0 0.00 0.00 0.00 75
20260503020419 3 37 0.0 0.0 0.00 0.00 0.00 74
20260503015915 3 273 0.0 0.0 0.00 0.00 0.00 73
20260503015413 3 31 0.0 1.6 0.00 0.00 0.00 73
20260503014908 3 15 0.0 0.0 0.00 0.00 0.00 73
20260503014406 3 9 0.0 0.0 0.00 0.00 0.00 73
20260503013904 3 12 0.0 0.0 0.00 0.00 0.00 72
20260503013400 3 30 1.6 1.6 0.00 0.00 0.00 72
20260503012857 3 40 0.0 0.0 0.00 0.00 0.00 72
20260503012355 3 355 1.6 1.6 0.00 0.00 0.00 72
20260503011852 3 32 0.0 0.0 0.00 0.00 0.00 71
20260503011349 3 323 0.0 0.0 0.00 0.00 0.00 71
20260503010845 3 4 1.6 1.6 0.00 0.00 0.00 71
20260503010342 3 20 1.6 1.6 0.00 0.00 0.00 70
20260503005839 3 308 3.2 3.2 0.00 0.00 0.00 70
20260503005337 3 337 1.6 3.2 0.00 0.00 0.00 71
20260503004832 3 351 1.6 1.6 0.00 0.00 0.00 70
20260503004330 4 346 0.0 1.6 0.00 0.00 0.00 70
20260503003828 4 325 1.6 1.6 0.00 0.00 0.00 69
20260503003324 4 5 0.0 0.0 0.00 0.00 0.00 69
20260503002821 4 311 1.6 1.6 0.00 0.00 0.00 69
20260503002318 4 15 0.0 1.6 0.00 0.00 0.00 68